TimeEST,TemperatureF,Dew PointF,Humidity,Sea Level PressureIn,VisibilityMPH,Wind Direction,Wind SpeedMPH,Gust SpeedMPH,PrecipitationIn,Events,Conditions,WindDirDegrees,DateUTC
12:53 AM,37.0,34.0,89,30.14,10.0,North,3.5,-,N/A,,Clear,360,2012-11-21 05:53:00
1:53 AM,37.9,34.0,86,30.14,10.0,NNW,5.8,-,N/A,,Clear,340,2012-11-21 06:53:00
2:53 AM,37.0,34.0,89,30.15,10.0,NNW,4.6,-,N/A,,Clear,340,2012-11-21 07:53:00
3:53 AM,37.0,34.0,89,30.15,10.0,NNW,3.5,-,N/A,,Clear,340,2012-11-21 08:53:00
4:53 AM,37.9,34.0,86,30.15,10.0,North,4.6,-,N/A,,Clear,350,2012-11-21 09:53:00
5:53 AM,37.0,33.1,86,30.16,10.0,North,4.6,-,N/A,,Clear,350,2012-11-21 10:53:00
6:53 AM,37.0,33.1,86,30.18,10.0,NNW,3.5,-,N/A,,Clear,340,2012-11-21 11:53:00
7:53 AM,39.0,33.1,79,30.19,10.0,NNW,5.8,-,N/A,,Clear,340,2012-11-21 12:53:00
8:53 AM,44.1,35.1,71,30.19,10.0,North,6.9,-,N/A,,Clear,360,2012-11-21 13:53:00
9:53 AM,46.9,37.0,68,30.19,10.0,Variable,4.6,-,N/A,,Clear,0,2012-11-21 14:53:00
10:53 AM,50.0,39.0,66,30.18,10.0,North,10.4,-,N/A,,Scattered Clouds,10,2012-11-21 15:53:00
11:53 AM,51.1,39.9,66,30.18,10.0,North,6.9,-,N/A,,Mostly Cloudy,10,2012-11-21 16:53:00
12:53 PM,50.0,41.0,71,30.18,10.0,NNE,8.1,-,N/A,,Overcast,20,2012-11-21 17:53:00
1:53 PM,52.0,42.1,69,30.17,10.0,North,6.9,-,N/A,,Overcast,360,2012-11-21 18:53:00
2:00 PM,51.8,41.0,67,30.16,10.0,North,8.1,-,N/A,,Mostly Cloudy,10,2012-11-21 19:00:00
2:53 PM,52.0,37.9,59,30.17,10.0,NNE,11.5,-,N/A,,Scattered Clouds,30,2012-11-21 19:53:00
3:53 PM,50.0,37.9,63,30.18,10.0,NNE,6.9,-,N/A,,Clear,30,2012-11-21 20:53:00
4:53 PM,48.9,41.0,74,30.19,10.0,North,3.5,-,N/A,,Overcast,360,2012-11-21 21:53:00
5:53 PM,48.0,41.0,77,30.21,10.0,North,4.6,-,N/A,,Overcast,360,2012-11-21 22:53:00
6:53 PM,45.0,41.0,86,30.22,10.0,Calm,Calm,-,N/A,,Partly Cloudy,0,2012-11-21 23:53:00
7:53 PM,45.0,42.1,90,30.23,7.0,NNW,3.5,-,0.00,Rain,Light Rain,340,2012-11-22 00:53:00
8:53 PM,46.0,43.0,89,30.22,7.0,NNW,4.6,-,0.00,,Overcast,340,2012-11-22 01:53:00
9:53 PM,44.1,42.1,93,30.22,5.0,NNW,3.5,-,N/A,,Partly Cloudy,340,2012-11-22 02:53:00
10:53 PM,44.1,42.1,93,30.22,4.0,NNW,3.5,-,N/A,,Mostly Cloudy,340,2012-11-22 03:53:00
11:53 PM,42.1,41.0,96,30.22,1.8,Calm,Calm,-,N/A,,Partly Cloudy,0,2012-11-22 04:53:00
11:56 PM,39.2,39.2,100,30.22,0.8,Calm,Calm,-,N/A,,Mist,0,2012-11-22 04:56:00